TimeHST,TemperatureF,Dew PointF,Humidity,Sea Level PressureIn,VisibilityMPH,Wind Direction,Wind SpeedMPH,Gust SpeedMPH,PrecipitationIn,Events,Conditions,WindDirDegrees,DateUTC
12:54 AM,75.0,70.0,84,30.06,10.0,Calm,Calm,-,0.00,,Partly Cloudy,0,2012-12-05 10:54:00
1:54 AM,73.9,70.0,87,30.07,10.0,ESE,4.6,-,N/A,,Scattered Clouds,120,2012-12-05 11:54:00
2:54 AM,73.9,70.0,87,30.06,10.0,Calm,Calm,-,N/A,,Partly Cloudy,0,2012-12-05 12:54:00
4:54 AM,75.0,71.1,87,30.06,10.0,North,4.6,-,N/A,,Clear,360,2012-12-05 14:54:00
5:54 AM,73.9,70.0,87,30.07,10.0,North,3.5,-,N/A,,Clear,10,2012-12-05 15:54:00
6:54 AM,73.0,69.1,87,30.09,10.0,Calm,Calm,-,N/A,,Partly Cloudy,0,2012-12-05 16:54:00
7:54 AM,75.0,70.0,84,30.12,10.0,Calm,Calm,-,N/A,,Overcast,0,2012-12-05 17:54:00
8:54 AM,77.0,71.1,82,30.12,10.0,North,4.6,-,N/A,,Overcast,350,2012-12-05 18:54:00
9:54 AM,78.1,72.0,81,30.12,10.0,NNW,3.5,-,N/A,,Overcast,340,2012-12-05 19:54:00
10:54 AM,80.1,70.0,71,30.09,10.0,North,4.6,-,N/A,,Overcast,360,2012-12-05 20:54:00
11:54 AM,81.0,70.0,69,30.08,10.0,NNE,9.2,-,N/A,,Clear,20,2012-12-05 21:54:00
12:54 PM,80.1,70.0,71,30.04,10.0,NNE,11.5,-,N/A,,Overcast,30,2012-12-05 22:54:00
1:54 PM,81.0,70.0,69,30.00,10.0,NE,12.7,-,N/A,,Partly Cloudy,40,2012-12-05 23:54:00
2:54 PM,82.0,70.0,67,29.99,10.0,NNE,4.6,-,N/A,,Overcast,20,2012-12-06 00:54:00
3:54 PM,80.1,70.0,71,29.99,10.0,NE,6.9,-,N/A,,Overcast,50,2012-12-06 01:54:00
4:54 PM,79.0,69.1,72,30.03,10.0,Calm,Calm,-,N/A,,Scattered Clouds,0,2012-12-06 02:54:00
5:54 PM,78.1,70.0,76,30.04,10.0,ESE,3.5,-,N/A,,Mostly Cloudy,110,2012-12-06 03:54:00
6:54 PM,75.9,66.9,74,30.05,10.0,NE,8.1,-,0.00,,Mostly Cloudy,50,2012-12-06 04:54:00
7:54 PM,75.0,66.0,73,30.06,10.0,ENE,8.1,-,N/A,,Scattered Clouds,70,2012-12-06 05:54:00
8:54 PM,75.0,66.9,76,30.05,10.0,East,5.8,-,N/A,,Scattered Clouds,100,2012-12-06 06:54:00
9:54 PM,73.0,68.0,84,30.05,10.0,East,5.8,-,N/A,,Scattered Clouds,80,2012-12-06 07:54:00
10:54 PM,73.0,66.9,81,30.03,10.0,Calm,Calm,-,N/A,,Partly Cloudy,0,2012-12-06 08:54:00
11:54 PM,72.0,66.9,84,30.02,10.0,Calm,Calm,-,N/A,,Partly Cloudy,0,2012-12-06 09:54:00